Weather History for Warsaw, Poland

Change the Weather History Date:

Thursday, November 21, 2013

  Actual Average Record
Temperature  
Mean Temperature 43 °F -  
Max Temperature 44 °F 37 °F 50 °F (2006)
Min Temperature 42 °F 28 °F 8 °F (1998)
Degree Days  
Heating Degree Days 22    
Moisture  
Dew Point 43 °F    
Average Humidity 98    
Maximum Humidity 100    
Minimum Humidity 88    
Precipitation  
Precipitation 0.01 in 0.05 in - ()
Sea Level Pressure  
Sea Level Pressure 29.68 in    
Wind  
Wind Speed 4 mph ()    
Max Wind Speed 12 mph    
Max Gust Speed -    
Visibility 3.2 miles    
Events Rain    
Averages and records for this station are not official NWS values.
T = Trace of Precipitation, MM = Missing Value Source: Averaged Metar Reports

Daily Weather History Graph

Daily Weather History Graph

Search for Another Location

Airport:

Trip Planner

Search our weather history database for the weather conditions in past years. The results will help you decide how hot, cold, wet, or windy it might be!

Date:

Astronomy

Nov. 21, 2013 Rise Set
Actual Time 7:06 AM CET 3:36 PM CET
Civil Twilight 6:28 AM CET 4:15 PM CET
Nautical Twilight 5:46 AM CET 4:57 PM CET
Astronomical Twilight 5:06 AM CET 5:37 PM CET
Moon 6:59 PM CET (11/21) 9:59 AM CET (11/21)
Length of Visible Light 9h 46m
Length of Day
8h 29m
Waning Gibbous, 87% of the Moon is Illuminated
Nov 21
Waning Gibbous
Nov 25
Last Quarter
Dec 3
New
Dec 9
First Quarter
Dec 17
Full

Hourly Weather History & Observations

Time (CET) Temp. Windchill Dew Point Humidity Pressure Visibility Wind Dir Wind Speed Gust Speed Precip Events Conditions
12:00 AM 44.6 °F - 44.6 °F 100% 29.59 in 6.2 mi Variable 1.2 mph - N/A Rain Light Rain
12:30 AM 44.6 °F - 44.6 °F 100% 29.59 in 4.3 mi Variable 1.2 mph - N/A Rain Light Rain
1:00 AM 44 °F - 43 °F 94% 29.62 in 4 mi Calm Calm - - Rain Light Rain
1:00 AM 42.8 °F - 42.8 °F 100% 29.59 in 4.3 mi Calm Calm - N/A Rain Light Rain
1:30 AM 42.8 °F 41.1 °F 42.8 °F 100% 29.59 in 3.1 mi ESE 3.5 mph - N/A Rain Light Rain
2:00 AM 44.6 °F 41.4 °F 44.6 °F 100% 29.59 in 2.5 mi SE 5.8 mph - N/A Rain Light Rain
2:30 AM 44.6 °F 43.1 °F 44.6 °F 100% 29.59 in 2.2 mi SSE 3.5 mph - N/A Rain Light Rain
3:00 AM 44.6 °F - 44.6 °F 100% 29.59 in 2.2 mi Calm Calm - N/A Rain Light Rain
3:30 AM 44.6 °F - 44.6 °F 100% 29.59 in 1.6 mi SW 1.2 mph - N/A Rain Light Rain
4:00 AM 44 °F - 44 °F 99% 29.65 in 2 mi SW 4.5 mph - - Rain Light Rain
4:00 AM 44.6 °F 42.2 °F 44.6 °F 100% 29.62 in 1.6 mi SW 4.6 mph - N/A Rain Light Rain
4:30 AM 44.6 °F 41.4 °F 44.6 °F 100% 29.62 in 1.9 mi WSW 5.8 mph - N/A Rain Light Rain
5:00 AM 44.6 °F 43.1 °F 44.6 °F 100% 29.62 in 1.9 mi West 3.5 mph - N/A Rain Light Rain
5:30 AM 42.8 °F 40.1 °F 42.8 °F 100% 29.62 in 1.6 mi WNW 4.6 mph - N/A Rain Light Rain
6:00 AM 42.8 °F 38.6 °F 42.8 °F 100% 29.62 in 1.6 mi West 6.9 mph - N/A Rain Light Rain
6:30 AM 42.8 °F 38.6 °F 42.8 °F 100% 29.62 in 1.9 mi West 6.9 mph - N/A Rain Light Rain
7:00 AM 44 °F - 43 °F 95% 29.66 in 2 mi WNW 2.2 mph - - Rain Light Rain
7:00 AM 42.8 °F 40.1 °F 42.8 °F 100% 29.65 in 1.9 mi WNW 4.6 mph - N/A Rain Light Rain
7:30 AM 42.8 °F - 42.8 °F 100% 29.65 in 1.6 mi Variable 2.3 mph - N/A Rain Light Rain
8:00 AM 42.8 °F 40.1 °F 42.8 °F 100% 29.65 in 1.6 mi WNW 4.6 mph - N/A Rain Light Rain
8:30 AM 42.8 °F 38.6 °F 42.8 °F 100% 29.65 in 1.6 mi WNW 6.9 mph - N/A Rain Light Rain
9:00 AM 42.8 °F 38.6 °F 42.8 °F 100% 29.65 in 1.2 mi WNW 6.9 mph - N/A   Mostly Cloudy
9:30 AM 42.8 °F 38.6 °F 42.8 °F 100% 29.65 in 1.6 mi WNW 6.9 mph - N/A   Mostly Cloudy
10:00 AM 43 °F - 43 °F 98% 29.69 in 2 mi NW 6.7 mph - -   Mist
10:00 AM 42.8 °F 39.3 °F 42.8 °F 100% 29.65 in 1.6 mi NW 5.8 mph - N/A   Mostly Cloudy
10:30 AM 42.8 °F 40.1 °F 42.8 °F 100% 29.68 in 1.9 mi NW 4.6 mph - N/A   Mostly Cloudy
11:00 AM 42.8 °F 39.3 °F 42.8 °F 100% 29.68 in 2.2 mi West 5.8 mph - N/A   Mostly Cloudy
11:30 AM 42.8 °F 38.6 °F 42.8 °F 100% 29.68 in 2.5 mi WNW 6.9 mph - N/A   Mostly Cloudy
12:00 PM 42.8 °F 39.3 °F 42.8 °F 100% 29.68 in 2.5 mi West 5.8 mph - N/A   Mostly Cloudy
12:30 PM 42.8 °F 38.0 °F 42.8 °F 100% 29.68 in 2.5 mi West 8.1 mph - N/A   Mostly Cloudy
1:00 PM 43 °F - 41 °F 88% 29.71 in 4 mi WNW 6.7 mph - -   Mist
1:00 PM 42.8 °F 38.0 °F 41.0 °F 93% 29.68 in 3.7 mi WNW 8.1 mph - N/A   Mostly Cloudy
1:30 PM 42.8 °F 39.3 °F 41.0 °F 93% 29.68 in 3.7 mi NW 5.8 mph - N/A   Mostly Cloudy
2:00 PM 42.8 °F 41.1 °F 41.0 °F 93% 29.68 in 3.7 mi North 3.5 mph - N/A   Mostly Cloudy
2:30 PM 42.8 °F - 41.0 °F 93% 29.71 in 3.7 mi Variable 2.3 mph - N/A   Mostly Cloudy
3:00 PM 42.8 °F - 42.8 °F 100% 29.71 in 3.7 mi Variable 2.3 mph - N/A   Mostly Cloudy
3:30 PM 42.8 °F - 42.8 °F 100% 29.71 in 2.5 mi Variable 1.2 mph - N/A   Mostly Cloudy
4:00 PM 43 °F - 41 °F 92% 29.74 in 2 mi East 2.2 mph - -   Mist
4:00 PM 42.8 °F - 42.8 °F 100% 29.71 in 2.5 mi Variable 2.3 mph - N/A   Mostly Cloudy
4:30 PM 42.8 °F - 41.0 °F 93% 29.74 in 3.1 mi Variable 1.2 mph - N/A   Mostly Cloudy
5:00 PM 42.8 °F - 41.0 °F 93% 29.74 in 3.7 mi Variable 2.3 mph - N/A   Mostly Cloudy
5:30 PM 42.8 °F - 41.0 °F 93% 29.74 in 3.7 mi Variable 2.3 mph - N/A   Mostly Cloudy
6:00 PM 42.8 °F - 42.8 °F 100% 29.74 in 3.7 mi Variable 2.3 mph - N/A   Mostly Cloudy
6:30 PM 42.8 °F 40.1 °F 42.8 °F 100% 29.74 in 6.2 mi ENE 4.6 mph - N/A   Mostly Cloudy
7:00 PM 44 °F - 42 °F 89% 29.77 in 6 mi East 4.5 mph - -   Mostly Cloudy
7:00 PM 42.8 °F 40.1 °F 42.8 °F 100% 29.74 in 6.2 mi East 4.6 mph - N/A   Mostly Cloudy
7:30 PM 42.8 °F 39.3 °F 42.8 °F 100% 29.74 in 6.2 mi NE 5.8 mph - N/A   Mostly Cloudy
8:00 PM 42.8 °F 40.1 °F 42.8 °F 100% 29.74 in 6.2 mi ENE 4.6 mph - N/A   Mostly Cloudy
8:30 PM 42.8 °F 38.6 °F 42.8 °F 100% 29.74 in 4.3 mi ENE 6.9 mph - N/A   Mostly Cloudy
9:00 PM 42.8 °F 39.3 °F 42.8 °F 100% 29.74 in 3.7 mi ENE 5.8 mph - N/A   Mostly Cloudy
9:30 PM 42.8 °F 39.3 °F 42.8 °F 100% 29.74 in 4.3 mi ENE 5.8 mph - N/A   Mostly Cloudy
10:00 PM 44 °F - 42 °F 89% 29.77 in 4 mi NE 6.7 mph - -   Mist
10:00 PM 44.6 °F 41.4 °F 42.8 °F 93% 29.74 in 4.3 mi NE 5.8 mph - N/A   Mostly Cloudy
10:30 PM 44.6 °F 38.8 °F 42.8 °F 93% 29.74 in 4.3 mi NE 11.5 mph - N/A   Mostly Cloudy
11:00 PM 42.8 °F 38.0 °F 42.8 °F 100% 29.74 in 4.3 mi East 8.1 mph - N/A   Partly Cloudy
11:30 PM 42.8 °F 38.6 °F 42.8 °F 100% 29.77 in 3.7 mi East 6.9 mph - N/A   Mostly Cloudy